TimeEDT,TemperatureF,Dew PointF,Humidity,Sea Level PressureIn,VisibilityMPH,Wind Direction,Wind SpeedMPH,Gust SpeedMPH,PrecipitationIn,Events,Conditions,WindDirDegrees,DateUTC
12:16 AM,51.3,29.1,43,30.05,10.0,ESE,3.5,-,N/A,,Clear,120,2013-05-28 04:16:00
12:36 AM,51.4,28.8,42,30.05,10.0,ESE,3.5,-,N/A,,Clear,110,2013-05-28 04:36:00
12:56 AM,50.2,30.4,47,30.04,10.0,ESE,3.5,-,N/A,,Clear,120,2013-05-28 04:56:00
1:16 AM,48.0,32.0,54,30.04,10.0,Calm,Calm,-,N/A,,Clear,0,2013-05-28 05:16:00
1:36 AM,49.3,31.6,51,30.04,10.0,SE,3.5,-,N/A,,Clear,130,2013-05-28 05:36:00
1:56 AM,49.6,32.0,51,30.04,10.0,Calm,Calm,-,N/A,,Clear,0,2013-05-28 05:56:00
2:16 AM,49.3,32.2,52,30.04,10.0,Calm,Calm,-,N/A,,Clear,0,2013-05-28 06:16:00
2:36 AM,50.0,32.0,50,30.03,10.0,ESE,4.6,-,N/A,,Clear,120,2013-05-28 06:36:00
2:56 AM,51.6,31.3,46,30.02,10.0,East,4.6,-,N/A,,Clear,100,2013-05-28 06:56:00
3:15 AM,51.3,31.1,46,30.02,10.0,ESE,5.8,-,N/A,,Clear,110,2013-05-28 07:15:00
3:36 AM,51.3,32.0,48,30.01,10.0,ESE,4.6,-,N/A,,Clear,110,2013-05-28 07:36:00
3:56 AM,50.9,32.0,48,30.01,10.0,Calm,Calm,-,N/A,,Clear,0,2013-05-28 07:56:00
4:15 AM,49.6,33.8,54,30.01,10.0,Calm,Calm,-,N/A,,Mostly Cloudy,0,2013-05-28 08:15:00
4:36 AM,49.8,34.5,56,30.00,10.0,Calm,Calm,-,N/A,,Overcast,0,2013-05-28 08:36:00
4:55 AM,50.4,34.2,54,29.99,10.0,East,3.5,-,N/A,,Overcast,100,2013-05-28 08:55:00
5:16 AM,50.9,34.9,54,29.99,10.0,East,3.5,-,N/A,,Overcast,90,2013-05-28 09:16:00
5:36 AM,50.9,35.6,56,29.99,10.0,Calm,Calm,-,N/A,,Overcast,0,2013-05-28 09:36:00
5:55 AM,50.7,36.9,59,29.98,10.0,East,3.5,-,N/A,,Overcast,100,2013-05-28 09:55:00
6:16 AM,51.1,36.9,58,29.99,10.0,East,4.6,-,N/A,,Overcast,100,2013-05-28 10:16:00
6:35 AM,51.6,36.9,57,29.99,10.0,ESE,4.6,-,N/A,,Overcast,110,2013-05-28 10:35:00
6:56 AM,52.7,36.7,55,29.99,10.0,ESE,6.9,-,N/A,,Overcast,120,2013-05-28 10:56:00
7:16 AM,52.9,36.7,54,29.99,10.0,ESE,6.9,-,N/A,,Overcast,120,2013-05-28 11:16:00
7:35 AM,52.3,37.4,57,29.99,10.0,SE,6.9,-,N/A,,Overcast,130,2013-05-28 11:35:00
7:56 AM,50.7,38.1,62,29.99,10.0,SE,8.1,-,N/A,,Overcast,140,2013-05-28 11:56:00
8:16 AM,50.4,39.4,66,29.98,10.0,SE,8.1,-,N/A,,Overcast,130,2013-05-28 12:16:00
8:35 AM,51.3,39.7,65,29.98,10.0,SE,6.9,-,N/A,,Overcast,130,2013-05-28 12:35:00
8:56 AM,52.7,40.5,63,29.97,10.0,SE,9.2,-,N/A,,Overcast,130,2013-05-28 12:56:00
9:16 AM,52.9,42.1,67,29.97,10.0,SE,4.6,-,N/A,,Overcast,130,2013-05-28 13:16:00
9:35 AM,53.1,42.3,67,29.98,10.0,SE,9.2,-,N/A,,Overcast,130,2013-05-28 13:35:00
9:56 AM,53.6,44.6,72,29.98,10.0,ESE,5.8,-,N/A,,Overcast,120,2013-05-28 13:56:00
10:16 AM,54.0,46.0,75,29.98,10.0,SE,10.4,16.1,N/A,,Overcast,130,2013-05-28 14:16:00
10:36 AM,53.4,45.9,76,29.97,10.0,ESE,10.4,-,N/A,,Overcast,120,2013-05-28 14:36:00
10:56 AM,53.6,45.5,74,29.97,10.0,ESE,12.7,17.3,N/A,,Overcast,120,2013-05-28 14:56:00
11:15 AM,53.6,45.3,74,29.96,10.0,ESE,10.4,-,N/A,,Overcast,110,2013-05-28 15:15:00
11:36 AM,55.0,43.5,65,29.95,10.0,ESE,10.4,-,N/A,,Overcast,110,2013-05-28 15:36:00
11:56 AM,56.7,45.3,66,29.95,10.0,ESE,8.1,16.1,N/A,,Overcast,120,2013-05-28 15:56:00
12:16 PM,55.4,48.6,78,29.95,10.0,ESE,9.2,-,N/A,,Overcast,120,2013-05-28 16:16:00
12:36 PM,54.7,48.2,79,29.94,10.0,ESE,13.8,21.9,N/A,,Overcast,110,2013-05-28 16:36:00
12:55 PM,54.7,48.0,78,29.94,10.0,ESE,12.7,20.7,N/A,Rain,Light Rain,120,2013-05-28 16:55:00
1:16 PM,54.0,47.5,79,29.94,10.0,SE,15.0,21.9,N/A,,Overcast,130,2013-05-28 17:16:00
1:36 PM,54.0,47.1,78,29.93,10.0,ESE,8.1,19.6,N/A,,Overcast,120,2013-05-28 17:36:00
1:55 PM,54.0,46.0,75,29.93,10.0,ESE,13.8,25.3,N/A,,Overcast,120,2013-05-28 17:55:00
2:16 PM,53.2,46.9,79,29.90,10.0,ESE,10.4,19.6,N/A,Rain,Rain,120,2013-05-28 18:16:00
2:36 PM,53.1,48.0,83,29.90,10.0,ESE,9.2,16.1,N/A,Rain,Light Rain,110,2013-05-28 18:36:00
2:55 PM,54.3,48.0,79,29.90,10.0,SE,12.7,17.3,N/A,,Overcast,130,2013-05-28 18:55:00
3:16 PM,53.6,48.6,83,29.89,10.0,ESE,12.7,18.4,N/A,Rain,Rain,120,2013-05-28 19:16:00
3:36 PM,52.2,49.1,89,29.89,5.0,ESE,9.2,16.1,N/A,Rain,Light Rain,120,2013-05-28 19:36:00
3:56 PM,51.1,49.5,94,29.88,3.0,ESE,10.4,18.4,N/A,Rain,Rain,110,2013-05-28 19:56:00
4:16 PM,51.3,50.2,96,29.89,4.0,ESE,6.9,-,N/A,Rain,Rain,120,2013-05-28 20:16:00
4:35 PM,51.1,50.0,96,29.90,5.0,SE,3.5,-,N/A,Rain,Light Rain,140,2013-05-28 20:35:00
4:56 PM,50.9,50.4,98,29.88,3.0,ESE,6.9,-,N/A,Rain,Rain,120,2013-05-28 20:56:00
5:16 PM,51.1,50.9,99,29.88,2.5,East,4.6,-,N/A,Rain,Rain,100,2013-05-28 21:16:00
5:35 PM,51.3,51.1,99,29.87,2.5,East,4.6,-,N/A,Rain,Rain,100,2013-05-28 21:35:00
5:56 PM,50.9,50.9,100,29.86,3.0,East,4.6,-,N/A,Rain,Light Rain,90,2013-05-28 21:56:00
6:16 PM,50.7,50.7,100,29.85,2.5,East,5.8,-,N/A,Rain,Rain,90,2013-05-28 22:16:00
6:35 PM,50.9,50.9,100,29.84,4.0,East,8.1,-,N/A,,Drizzle,90,2013-05-28 22:35:00
6:56 PM,50.9,50.9,100,29.83,2.0,East,5.8,-,N/A,,Drizzle,90,2013-05-28 22:56:00
7:16 PM,50.9,50.9,100,29.83,2.0,East,6.9,-,N/A,Rain,Light Rain,80,2013-05-28 23:16:00
7:36 PM,50.7,50.7,100,29.82,2.0,East,4.6,-,N/A,,Light Drizzle,80,2013-05-28 23:36:00
7:56 PM,50.4,50.4,100,29.81,2.5,East,5.8,-,N/A,,Overcast,100,2013-05-28 23:56:00
8:16 PM,50.2,50.2,100,29.82,3.0,ESE,8.1,-,N/A,,Overcast,110,2013-05-29 00:16:00
8:36 PM,50.2,50.2,100,29.82,3.0,East,3.5,-,N/A,,Overcast,90,2013-05-29 00:36:00
8:56 PM,50.2,50.2,100,29.82,4.0,East,3.5,-,N/A,Rain,Light Rain,80,2013-05-29 00:56:00
9:15 PM,50.4,50.4,100,29.81,1.8,Calm,Calm,-,N/A,,Drizzle,0,2013-05-29 01:15:00
9:36 PM,50.5,50.5,100,29.79,1.5,ESE,5.8,-,N/A,,Light Drizzle,120,2013-05-29 01:36:00
9:56 PM,51.1,51.1,100,29.79,2.0,ESE,4.6,-,N/A,Rain,Light Rain,110,2013-05-29 01:56:00
10:15 PM,52.9,52.9,100,29.80,1.8,SE,8.1,-,N/A,Rain,Light Rain,130,2013-05-29 02:15:00
10:36 PM,52.7,52.7,100,29.79,1.0,SE,8.1,-,N/A,,Overcast,140,2013-05-29 02:36:00
10:56 PM,52.3,52.3,100,29.79,1.2,SSE,8.1,-,N/A,Rain,Rain,150,2013-05-29 02:56:00
11:16 PM,51.8,51.8,100,29.79,1.8,SSE,6.9,-,N/A,,Overcast,150,2013-05-29 03:16:00
11:36 PM,51.3,51.3,100,29.79,5.0,SSE,3.5,-,N/A,Rain,Light Rain,150,2013-05-29 03:36:00
11:56 PM,50.9,50.9,100,29.79,5.0,SSE,6.9,-,N/A,Rain,Light Rain,150,2013-05-29 03:56:00